Starlink 3297

operational
NORAD ID: 50159 Int'l Des: 2021-125 Owner: SPXS Country: US Constellation: starlink
LEOCIRCULAR

About Starlink 3297

Description loading...

Live Position

Loading 3D Globe...

Upcoming Passes

Altitude History

Altitude vs Time

uPlot chart will show altitude changes over time

Two-Line Element Set

1 50159U 21125D 25351.49147861 -.00000065 00000-0 14009-4 0 9997
2 50159 53.2169 268.1347 0001288 87.4237 272.6903 15.08838125224041
Epoch: Dec 17, 2025 • Age: 22 hours

Current Status

Altitude 546.7 km
Velocity 7.59 km/s
Sub-Earth Point -22.95°S, 9.51°E
Launch Date Dec 18, 2021
Age 3.9 years
Type internet

Technical Details

Classification Payload
Mass 290.00 kg
Dry Mass 270.00 kg
Total Mass 290.00 kg
Length 0.20 m
Diameter 2.80 m
Span 9.00 m
Shape Box + pan
Manufacturer SPXS
Bus Type Starlink
Phase Status In Orbit
Owner/State SPXS/US

Large Constellations

Loading constellations...